FW4825 Weather Reports


time (UTC)temp
C
wind
direction
speed
KPH
gust
KPH
rain 1hr
cm
rain 24hr
cm
rain mn
cm
humidity
%
barometer
mb
20260906022556 29 45 1.6 6.4 0.00 0.00 0.00 77 1015.0
20260906021516 29 0.0 3.2 0.00 0.00 0.00 77 1014.9
20260906020557 30 0.0 0.0 0.00 0.00 0.00 76 1014.8
20260906015516 30 0.0 0.0 0.00 0.00 0.00 76 1014.6
20260906014516 30 0.0 1.6 0.00 0.00 0.00 76 1014.4
20260906013516 30 0.0 3.2 0.00 0.00 0.00 75 1014.3
20260906012616 31 0.0 1.6 0.00 0.00 0.00 74 1014.2
20260906011537 31 0.0 0.0 0.00 0.00 0.00 73 1014.2
20260906010516 31 0.0 0.0 0.00 0.00 0.00 72 1014.1
20260906005516 32 0.0 1.6 0.00 0.00 0.00 71 1014.0
20260906004516 32 0.0 0.0 0.00 0.00 0.00 70 1013.8
20260906003516 32 0.0 0.0 0.00 0.00 0.00 69 1013.6
20260906002516 33 0.0 0.0 0.00 0.00 0.00 68 1013.6
20260906001536 33 0.0 0.0 0.00 0.00 0.00 67 1013.6
20260906000516 33 0.0 0.0 0.00 0.00 0.00 66 1013.9
20260905235516 34 0.0 1.6 0.00 0.00 0.00 65 1013.7
20260905234536 34 0.0 3.2 0.00 0.00 0.00 65 1013.6
20260905233516 34 0.0 1.6 0.00 0.00 0.00 65 1013.8
20260905232516 34 0.0 1.6 0.00 0.00 0.00 65 1013.8
20260905231516 34 23 1.6 3.2 0.00 0.00 0.00 64 1013.8
20260905230516 34 0.0 3.2 0.00 0.00 0.00 65 1013.7
20260905225516 34 45 1.6 4.8 0.00 0.00 0.00 65 1013.6
20260905224516 34 315 1.6 4.8 0.00 0.00 0.00 63 1013.5
20260905223516 35 315 1.6 6.4 0.00 0.00 0.00 63 1013.5
20260905222516 35 0.0 3.2 0.00 0.00 0.00 61 1013.6
20260905221516 35 315 1.6 6.4 0.00 0.00 0.00 61 1013.6
20260905220516 35 0 3.2 8.0 0.00 0.00 0.00 59 1013.5
20260905215516 35 315 1.6 8.0 0.00 0.00 0.00 60 1013.5
20260905214516 35 315 1.6 6.4 0.00 0.00 0.00 60 1013.6
20260905213516 35 315 1.6 4.8 0.00 0.00 0.00 61 1013.6
20260905212516 35 23 3.2 11.3 0.00 0.00 0.00 60 1013.5
20260905211516 36 338 1.6 6.4 0.00 0.00 0.00 60 1013.5
20260905210516 35 293 1.6 6.4 0.00 0.00 0.00 59 1013.6
20260905205516 35 293 1.6 4.8 0.00 0.00 0.00 60 1013.8
20260905204516 35 248 1.6 3.2 0.00 0.00 0.00 61 1013.8
20260905203515 35 315 3.2 6.4 0.00 0.00 0.00 61 1013.9
20260905202516 35 0 3.2 8.0 0.00 0.00 0.00 60 1013.9
20260905201516 35 270 3.2 6.4 0.00 0.00 0.00 61 1014.0
20260905200516 35 338 3.2 8.0 0.00 0.00 0.00 60 1014.0
20260905195515 35 293 1.6 3.2 0.00 0.00 0.00 60 1013.9
20260905194516 35 315 3.2 6.4 0.00 0.00 0.00 58 1014.1
20260905193516 36 338 1.6 8.0 0.00 0.00 0.00 56 1014.2
20260905192515 36 68 1.6 4.8 0.00 0.00 0.00 55 1014.3
20260905191516 36 248 3.2 6.4 0.00 0.00 0.00 57 1014.4
20260905190515 36 180 1.6 6.4 0.00 0.00 0.00 57 1014.4
20260905185515 36 248 3.2 4.8 0.00 0.00 0.00 57 1014.5
20260905184515 36 270 3.2 6.4 0.00 0.00 0.00 55 1014.7
20260905183516 36 270 3.2 14.5 0.00 0.00 0.00 55 1014.8
20260905182515 35 248 3.2 11.3 0.00 0.00 0.00 57 1014.8
20260905181515 36 0.0 3.2 0.00 0.00 0.00 59 1014.8
20260905180535 36 68 3.2 6.4 0.00 0.00 0.00 57 1014.9
20260905175516 35 315 1.6 6.4 0.00 0.00 0.00 60 1015.0
20260905174515 35 315 1.6 3.2 0.00 0.00 0.00 59 1015.1
20260905173535 35 270 3.2 8.0 0.00 0.00 0.00 59 1015.1
20260905172515 35 270 1.6 6.4 0.00 0.00 0.00 60 1015.2
20260905171515 35 248 3.2 9.7 0.00 0.00 0.00 60 1015.3
20260905170515 35 248 1.6 4.8 0.00 0.00 0.00 64 1015.4
20260905165515 35 248 1.6 4.8 0.00 0.00 0.00 64 1015.6
20260905164535 35 0.0 3.2 0.00 0.00 0.00 62 1015.6
20260905163515 34 0.0 3.2 0.00 0.00 0.00 64 1015.6
20260905162515 33 338 1.6 3.2 0.00 0.00 0.00 63 1015.4
20260905161515 33 0.0 1.6 0.00 0.00 0.00 68 1015.5
20260905160515 32 0.0 3.2 0.00 0.00 0.00 69 1015.6
20260905155515 32 0.0 3.2 0.00 0.00 0.00 68 1015.7
20260905154535 31 293 1.6 3.2 0.00 0.00 0.00 68 1015.6
20260905153515 30 0.0 0.0 0.00 0.00 0.00 75 1015.5
20260905152515 29 0.0 0.0 0.00 0.00 0.00 79 1015.4
20260905151517 29 0.0 0.0 0.00 0.00 0.00 78 1015.2
20260905150537 28 0.0 3.2 0.00 0.00 0.00 79 1015.2
20260905145537 28 0.0 3.2 0.00 0.00 0.00 80 1015.0
20260905144517 28 0.0 1.6 0.00 0.00 0.00 81 1015.1
20260905143517 28 0.0 1.6 0.00 0.00 0.00 83 1015.0
20260905142517 28 0.0 0.0 0.00 0.00 0.00 82 1015.2
20260905141517 27 0.0 1.6 0.00 0.00 0.00 83 1015.3
20260905140517 27 0.0 1.6 0.00 0.00 0.00 84 1015.2
20260905135517 27 0.0 0.0 0.00 0.00 0.00 85 1015.2
20260905134517 26 0.0 1.6 0.00 0.00 0.00 86 1015.3
20260905133537 26 0.0 0.0 0.00 0.00 0.00 87 1015.3
20260905132517 26 0.0 1.6 0.00 0.00 0.00 88 1015.3
20260905131517 26 0.0 0.0 0.00 0.00 0.00 89 1015.3
20260905130517 25 0.0 0.0 0.00 0.00 0.00 89 1015.2
20260905125557 25 0.0 0.0 0.00 0.00 0.00 89 1015.1
20260905124557 24 0.0 0.0 0.00 0.00 0.00 89 1015.2
20260905123517 23 0.0 0.0 0.00 0.00 0.00 88 1015.0
20260905122517 23 0.0 0.0 0.00 0.00 0.00 88 1015.0
20260905121537 23 0.0 0.0 0.00 0.00 0.00 88 1014.9
20260905120517 23 0.0 0.0 0.00 0.00 0.00 87 1014.9
20260905115517 23 0.0 0.0 0.00 0.00 0.00 87 1014.6
20260905114517 23 0.0 0.0 0.00 0.00 0.00 87 1014.8
20260905113536 23 0.0 0.0 0.00 0.00 0.00 87 1014.5
20260905112516 23 0.0 0.0 0.00 0.00 0.00 87 1014.5
20260905111517 23 0.0 0.0 0.00 0.00 0.00 86 1014.4
20260905110517 23 0.0 0.0 0.00 0.00 0.00 86 1014.4
20260905105516 23 0.0 0.0 0.00 0.00 0.00 86 1014.4
20260905104516 24 0.0 0.0 0.00 0.00 0.00 86 1014.4
20260905103516 24 0.0 0.0 0.00 0.00 0.00 86 1014.5
20260905102517 24 0.0 0.0 0.00 0.00 0.00 86 1014.5
20260905101516 24 0.0 0.0 0.00 0.00 0.00 86 1014.3
20260905100516 24 0.0 1.6 0.00 0.00 0.00 86 1014.4
20260905095516 24 0.0 0.0 0.00 0.00 0.00 86 1014.4
20260905094516 24 0.0 0.0 0.00 0.00 0.00 86 1014.5
20260905093516 24 0.0 0.0 0.00 0.00 0.00 86 1014.4
20260905092516 24 0.0 1.6 0.00 0.00 0.00 86 1014.5
20260905091516 24 0.0 0.0 0.00 0.00 0.00 86 1014.5
20260905090516 24 0.0 3.2 0.00 0.00 0.00 86 1014.5
20260905085516 24 0.0 1.6 0.00 0.00 0.00 86 1014.6
20260905084516 24 0.0 1.6 0.00 0.00 0.00 86 1014.6
20260905083516 25 0.0 1.6 0.00 0.00 0.00 87 1014.7
20260905082516 25 203 1.6 6.4 0.00 0.00 0.00 87 1014.6
20260905081516 25 203 1.6 4.8 0.00 0.00 0.00 87 1014.9
20260905080516 25 0.0 0.0 0.00 0.00 0.00 86 1014.8
20260905075516 25 0.0 1.6 0.00 0.00 0.00 86 1014.9
20260905074516 25 0.0 0.0 0.00 0.00 0.00 86 1014.9
20260905073536 25 0.0 0.0 0.00 0.00 0.00 87 1015.1
20260905072516 25 0.0 0.0 0.00 0.00 0.00 86 1015.0
20260905071516 25 0.0 0.0 0.00 0.00 0.00 86 1015.0
20260905070516 25 0.0 0.0 0.00 0.00 0.00 86 1015.0
20260905065516 25 0.0 0.0 0.00 0.00 0.00 86 1014.9
20260905064516 25 0.0 0.0 0.00 0.00 0.00 86 1015.0
20260905063516 26 0.0 0.0 0.00 0.00 0.00 86 1015.0
20260905062516 26 0.0 0.0 0.00 0.00 0.00 86 1015.0
20260905061516 26 0.0 0.0 0.00 0.00 0.00 85 1015.0
20260905060516 26 0.0 0.0 0.00 0.00 0.00 85 1015.1
20260905055516 26 0.0 0.0 0.00 0.00 0.00 85 1015.0
20260905054516 26 0.0 0.0 0.00 0.00 0.00 85 1014.8
20260905053516 26 0.0 0.0 0.00 0.00 0.00 85 1015.0
20260905052536 26 0.0 0.0 0.00 0.00 0.00 85 1014.8
20260905051516 26 0.0 0.0 0.00 0.00 0.00 85 1014.8
20260905050516 26 0.0 0.0 0.00 0.00 0.00 84 1014.9
20260905045516 26 0.0 0.0 0.00 0.00 0.00 84 1014.7
20260905044517 26 0.0 0.0 0.00 0.00 0.00 83 1015.0
20260905043557 26 0.0 0.0 0.00 0.00 0.00 82 1015.0
20260905042517 27 0.0 0.0 0.00 0.00 0.00 82 1015.0
20260905041517 27 0.0 0.0 0.00 0.00 0.00 81 1015.1
20260905040516 27 0.0 0.0 0.00 0.00 0.00 81 1014.9
20260905035516 27 0.0 0.0 0.00 0.00 0.00 81 1015.1
20260905034516 27 0.0 0.0 0.00 0.00 0.00 81 1015.0
20260905033537 27 0.0 0.0 0.00 0.00 0.00 81 1014.9
20260905032516 27 0.0 1.6 0.00 0.00 0.00 81 1014.9
20260905031516 28 0.0 0.0 0.00 0.00 0.00 80 1014.8
20260905030517 28 0.0 0.0 0.00 0.00 0.00 79 1014.7
20260905025516 28 0.0 0.0 0.00 0.00 0.00 79 1014.6
20260905024516 28 0.0 0.0 0.00 0.00 0.00 78 1014.6
20260905023516 28 0.0 1.6 0.00 0.00 0.00 78 1014.4